McCall, ID

1:23 PM MDT on May 23, 2017 (GMT -0600)
McCall

Weather History for KMYL - August, 2014

Change the Weather History Date:

Sunday, August 17, 2014

  Actual Average Record
Temperature  
Mean Temperature 65 °F 60 °F  
Max Temperature 82 °F 78 °F 93 °F (1967)
Min Temperature 47 °F 41 °F 29 °F (1987)
Degree Days  
Heating Degree Days 0 6  
Month to date heating degree days 14 76  
Since 1 June heating degree days 346 593  
Since 1 July heating degree days 32 226  
Cooling Degree Days 0 0  
Month to date cooling degree days 50 7  
Year to date cooling degree days 181 23  
Since 1 June cooling degree days 181 23  
Growing Degree Days 14 (Base 50)    
Moisture  
Dew Point 44 °F    
Average Humidity 55    
Maximum Humidity 86    
Minimum Humidity 23    
Precipitation  
Precipitation 0.00 in 0.03 in 0.57 in (1990)
Month to date precipitation 0.99 0.34  
Year to date precipitation 16.41 12.70  
Sea Level Pressure  
Sea Level Pressure 30.06 in    
Wind  
Wind Speed 3 mph (ENE)    
Max Wind Speed 10 mph    
Max Gust Speed 14 mph    
Visibility 10 miles    
Events      
T = Trace of Precipitation, MM = Missing Value Source: NWS Daily Summary

Daily Weather History Graph

Daily Weather History Graph

Search for Another Location

Airport or City:

Trip Planner

Search our weather history database for the weather conditions in past years. The results will help you decide how hot, cold, wet, or windy it might be!

Date:

Astronomy

Aug. 17, 2014 Rise Set
Actual Time 6:48 AM MDT 8:47 PM MDT
Civil Twilight 6:17 AM MDT 9:18 PM MDT
Nautical Twilight 5:38 AM MDT 9:57 PM MDT
Astronomical Twilight 4:55 AM MDT 10:39 PM MDT
Moon 12:15 AM MDT (8/17) 2:59 PM MDT (8/17)
Length of Visible Light 15h 01m
Length of Day
13h 58m
Waning Gibbous, 48% of the Moon is Illuminated
Aug 17
Waning Gibbous
Aug 25
New
Sep 2
First Quarter
Sep 8
Full
Sep 15
Last Quarter

Hourly Weather History & Observations

Time (MDT) Temp. Dew Point Humidity Pressure Visibility Wind Dir Wind Speed Gust Speed Precip Events Conditions
12:51 AM 55.9 °F 46.9 °F 72% 30.06 in 10.0 mi Calm Calm - N/A   Clear
1:51 AM 55.0 °F 46.0 °F 72% 30.05 in 10.0 mi Calm Calm - N/A   Clear
3:51 AM 48.9 °F 45.0 °F 86% 30.07 in 10.0 mi Calm Calm - N/A   Clear
6:51 AM 46.9 °F 43.0 °F 86% 30.09 in 10.0 mi NE 3.5 mph - N/A   Clear
7:51 AM 50.0 °F 45.0 °F 83% 30.11 in 10.0 mi Calm Calm - N/A   Clear
8:51 AM 57.0 °F 46.0 °F 67% 30.10 in 10.0 mi Calm Calm - N/A   Clear
9:51 AM 61.0 °F 46.9 °F 60% 30.11 in 10.0 mi Calm Calm - N/A   Clear
10:00 AM 62.1 °F 48.0 °F 60% 30.21 in 10.0 mi Calm Calm - N/A   Partly Cloudy
10:51 AM 66.9 °F 48.0 °F 51% 30.09 in 10.0 mi Variable 3.5 mph - N/A   Clear
11:51 AM 70.0 °F 46.9 °F 44% 30.09 in 10.0 mi Variable 3.5 mph - N/A   Clear
12:51 PM 73.9 °F 44.1 °F 34% 30.08 in 10.0 mi SE 5.8 mph - N/A   Clear
1:51 PM 78.1 °F 43.0 °F 29% 30.06 in 10.0 mi Variable 3.5 mph - N/A   Partly Cloudy
2:51 PM 79.0 °F 41.0 °F 26% 30.04 in 10.0 mi NW 8.1 mph - N/A   Partly Cloudy
3:51 PM 81.0 °F 39.0 °F 22% 30.04 in 10.0 mi Variable 4.6 mph - N/A   Mostly Cloudy
4:51 PM 79.0 °F 39.0 °F 24% 30.02 in 10.0 mi Variable 6.9 mph - N/A   Partly Cloudy
5:51 PM 78.1 °F 39.0 °F 25% 30.01 in 10.0 mi SSE 3.5 mph - N/A   Clear
6:51 PM 78.1 °F 37.9 °F 24% 30.00 in 10.0 mi ESE 4.6 mph - N/A   Clear
7:51 PM 77.0 °F 41.0 °F 28% 30.00 in 10.0 mi Calm Calm - N/A   Clear
8:51 PM 72.0 °F 43.0 °F 35% 30.00 in 10.0 mi NW 3.5 mph - N/A   Clear
10:51 PM 66.9 °F 45.0 °F 45% 30.00 in 10.0 mi NNE 6.9 mph - N/A   Clear